[[{"header":{"parameterUnit":"m.s-1","parameterCategory":1,"la1":30.2991,"la2":30.254,"lo1":-89.0895,"lo2":-89.0444,"dy":0.0017,"dx":0.0017,"nx":28,"ny":28,"refTime":"2023-07-25T21:00:00:Z","depth":0,"parameterNumber":2,"parameterNumberName":"U-component_of_WINDS"},"data":[0,0,0,0,0,0,0,0,0,0,0,0,0,0,0,0,0,0,0,0,0,0,0,0,0,0,0,0,0,0,0,0,0,0,0,0,0,0,0,0,0,0,0,0,0,0,0,0,0,0,0,0,0,0,0,0,0,0,0.1226,0.1227,0,0.1377,0.1378,0.138,0.1399,0.1397,0.1396,0.1395,0.1554,0.1559,0.1565,0,0,0,0,0,0,0,0,0,0,0,0,0,0.0957,0.0962,0.1225,0.1227,0.1229,0.1376,0.1378,0.138,0.1399,0.1397,0.1396,0.1394,0.1552,0.1559,0.1566,0,0,0,0,0,0,0,0,0,0,0,0,0,0.1088,0.0964,0.1225,0.1256,0.126,0.1376,0.1378,0.1381,0.14,0.1397,0.1395,0.1393,0.155,0.1558,0.1566,0.1663,0,0,0.1592,0.1596,0,0,0,0,0,0,0,0,0.108,0.1098,0.125,0.1254,0.1259,0.1366,0.1342,0.1476,0.14,0.1347,0.1395,0.1392,0.1494,0.1507,0.154,0.167,0.1677,0.1593,0.1598,0.1602,0.1604,0,0,0,0,0,0,0,0.1071,0.1091,0.1285,0.1252,0.1258,0.1264,0.128,0.1368,0.1431,0.1351,0.1353,0.137,0.1496,0.1532,0.1544,0.1679,0.1593,0.16,0.1605,0.1609,0.1897,0.1899,0,0,0,0,0,0,0.1056,0.1083,0.1281,0.129,0.1162,0.127,0.1288,0.1334,0.143,0.1442,0.1372,0.1371,0.1518,0.1534,0.155,0.1669,0.1602,0.161,0.1614,0.1894,0.1897,0.19,0,0,0,0,0,0,0.105,0.1073,0.1274,0.1187,0.1213,0.1277,0.1329,0.1339,0.1374,0.1446,0.1458,0.1397,0.1517,0.1538,0.1634,0.1675,0.1613,0.1621,0.1891,0.1895,0.1899,0.1908,0,0,0,0,0,0,0.1042,0.1071,0.1107,0.1188,0.1218,0.1355,0.1331,0.1343,0.1388,0.1388,0.1472,0.1484,0.1517,0.1622,0.1643,0.1685,0.1628,0.1888,0.1893,0.1898,0.1905,0.1912,0.1918,0,0,0,0,0,0.1033,0.1105,0.1109,0.1133,0.1264,0.1358,0.1375,0.141,0.1391,0.1429,0.1475,0.1481,0.1667,0.1631,0.1655,0.1701,0.1885,0.1891,0.1897,0.1902,0.1911,0.1918,0,0,0,0,0,0,0.103,0.1116,0.1122,0.1222,0.1282,0.1361,0.1409,0.1419,0.1487,0.1484,0.1526,0.1545,0.164,0.168,0.1639,0.1799,0.1774,0.1785,0.177,0.1779,0.1785,0.1774,0.1635,0,0,0,0,0,0.104,0.1107,0.118,0.1262,0.1291,0.1345,0.1387,0.1409,0.1474,0.15,0.1552,0.1616,0.1689,0.1736,0.1807,0.191,0.1929,0.1954,0.196,0.1966,0.1975,0.2033,0.2045,0.1919,0.1919,0.1919,0,0,0.1064,0.1119,0.116,0.1262,0.1312,0.1381,0.1366,0.1441,0.1494,0.1512,0.1606,0.1646,0.1721,0.1821,0.1868,0.1857,0.2013,0.1973,0.1977,0.1983,0.204,0.2052,0.2063,0.1923,0.1923,0.1922,0,0,0.1142,0.1191,0.1264,0.1313,0.1387,0.1422,0.1439,0.1517,0.1544,0.1639,0.1653,0.1717,0.1841,0.1893,0.1936,0.2033,0.2042,0.2055,0.2091,0.2148,0.2157,0.2166,0.2202,0.2214,0.2064,0.2064,0.2064,0,0.1163,0.1267,0.1301,0.1375,0.142,0.1437,0.1513,0.1559,0.1653,0.1684,0.1671,0.1826,0.1878,0.1991,0.2014,0.2048,0.207,0.2046,0.2153,0.2162,0.2171,0.2206,0.2219,0.2065,0.2065,0.2065,0.2065,0,0.1289,0.1361,0.1412,0.15,0.1551,0.1625,0.1671,0.1719,0.1736,0.1773,0.1869,0.1931,0.2014,0.2043,0.2061,0.2159,0.215,0.2144,0.212,0.2184,0.2217,0.223,0.2067,0.2066,0.2066,0.2066,0,0,0.1371,0.1476,0.1494,0.1534,0.1617,0.1674,0.1749,0.1829,0.187,0.1934,0.1999,0.2103,0.2098,0.2146,0.217,0.2219,0.2293,0.2208,0.221,0.2222,0.2405,0.2409,0.2424,0.2298,0.2301,0.2303,0.2399,0,0.146,0.1593,0.1625,0.174,0.1807,0.1824,0.189,0.1948,0.1984,0.2048,0.2088,0.2162,0.2149,0.2178,0.2228,0.2273,0.233,0.2267,0.2361,0.2364,0.2342,0.2441,0.2446,0.2533,0.2412,0.2414,0.2416,0,0.1582,0.1646,0.1767,0.184,0.1869,0.1928,0.2003,0.2064,0.213,0.2153,0.2206,0.2226,0.2306,0.2276,0.2388,0.2344,0.2385,0.2413,0.2417,0.2428,0.2394,0.2455,0.2562,0.2575,0.2436,0.2435,0.2433,0,0.163,0.1748,0.1835,0.1869,0.1956,0.1997,0.2035,0.2099,0.2145,0.2212,0.2242,0.2318,0.236,0.2418,0.2458,0.2432,0.2566,0.254,0.2589,0.2588,0.2617,0.2615,0.2732,0.2642,0.2641,0.2641,0.2641,0,0.1727,0.18,0.1858,0.1912,0.1995,0.2031,0.2113,0.2152,0.2209,0.2271,0.2291,0.2349,0.2397,0.2463,0.2494,0.2582,0.2601,0.2622,0.263,0.2621,0.2619,0.2649,0.2644,0.2645,0.2644,0.2643,0.2643,0,0.1796,0.1837,0.1934,0.2007,0.2028,0.2086,0.215,0.2203,0.2239,0.2318,0.2339,0.2396,0.2474,0.2519,0.2618,0.2639,0.2737,0.2741,0.2714,0.2717,0.2764,0.2759,0.2906,0.2927,0.2821,0.2822,0.2823,0,0.1855,0.1911,0.1991,0.2033,0.2072,0.214,0.2186,0.2225,0.2272,0.2352,0.2396,0.2475,0.254,0.2664,0.2716,0.2791,0.2798,0.2844,0.281,0.2799,0.28,0.2796,0.2802,0.2851,0.2851,0.2852,0.2853,0,0.1956,0.1973,0.2038,0.2111,0.2165,0.2224,0.2283,0.2317,0.2366,0.2418,0.2497,0.2548,0.2647,0.2726,0.2805,0.2847,0.2859,0.2863,0.2878,0.287,0.2852,0.2863,0.2731,0.286,0.2859,0.2859,0.2858,0.2858,0.2022,0.2073,0.2136,0.2209,0.2256,0.2311,0.2364,0.2406,0.2472,0.2556,0.2574,0.2658,0.2723,0.2831,0.2874,0.2941,0.2933,0.2955,0.2961,0.2966,0.2967,0.2841,0.2955,0.2955,0.2955,0.2955,0.2955,0,0.2124,0.2166,0.2231,0.2312,0.2369,0.2373,0.2438,0.2486,0.2558,0.2617,0.268,0.2771,0.2847,0.2904,0.2982,0.3024,0.3031,0.3043,0.3041,0.305,0.297,0.2949,0.3036,0.3036,0.3036,0.3036,0.3036,0.3036,0.2184,0.2271,0.2295,0.2406,0.2447,0.2528,0.2565,0.2615,0.2662,0.2762,0.2825,0.286,0.2919,0.3001,0.3071,0.3086,0.3114,0.3125,0.3141,0.3065,0.3056,0.3048,0.3029,0.3131,0.3131,0.3216,0.3217,0.3217]},{"header":{"parameterUnit":"m.s-1","parameterCategory":1,"la1":30.2991,"la2":30.254,"lo1":-89.0895,"lo2":-89.0444,"dy":0.0017,"dx":0.0017,"nx":28,"ny":28,"refTime":"2023-07-25T21:00:00:Z","depth":0,"parameterNumber":3,"parameterNumberName":"V-component_of_WINDS"},"data":[0,0,0,0,0,0,0,0,0,0,0,0,0,0,0,0,0,0,0,0,0,0,0,0,0,0,0,0,0,0,0,0,0,0,0,0,0,0,0,0,0,0,0,0,0,0,0,0,0,0,0,0,0,0,0,0,0,0,1.5281,1.5281,0,1.5229,1.5228,1.5227,1.5239,1.524,1.5241,1.5242,1.5183,1.5181,1.5178,0,0,0,0,0,0,0,0,0,0,0,0,0,1.5386,1.5384,1.5281,1.528,1.528,1.5229,1.5228,1.5227,1.5239,1.524,1.5242,1.5243,1.5184,1.5181,1.5178,0,0,0,0,0,0,0,0,0,0,0,0,0,1.5337,1.5383,1.5281,1.528,1.5279,1.5229,1.5228,1.5227,1.5239,1.5241,1.5242,1.5243,1.5185,1.5182,1.5178,1.5124,0,0,1.5166,1.5165,0,0,0,0,0,0,0,0,1.534,1.5334,1.5281,1.528,1.5279,1.5242,1.5243,1.5192,1.5239,1.5254,1.5242,1.5244,1.5201,1.5196,1.5183,1.5121,1.5119,1.5166,1.5164,1.5162,1.5161,0,0,0,0,0,0,0,1.5343,1.5336,1.526,1.528,1.5279,1.528,1.5275,1.5234,1.522,1.5253,1.5254,1.5248,1.5201,1.5187,1.5182,1.5118,1.5166,1.5163,1.516,1.5159,1.5006,1.5005,0,0,0,0,0,0,1.5348,1.5339,1.5262,1.5259,1.5314,1.5277,1.5271,1.5252,1.522,1.5217,1.5246,1.5248,1.5192,1.5186,1.518,1.5112,1.5162,1.5159,1.5156,1.5008,1.5006,1.5004,0,0,0,0,0,0,1.5351,1.5341,1.5264,1.5299,1.5289,1.5273,1.5252,1.5251,1.5236,1.5215,1.5212,1.5234,1.5193,1.5185,1.5138,1.511,1.5157,1.5153,1.501,1.5007,1.5005,1.4979,0,0,0,0,0,0,1.5353,1.5342,1.5323,1.5298,1.5287,1.5224,1.5251,1.5248,1.523,1.5232,1.5203,1.52,1.5194,1.5143,1.5134,1.5106,1.515,1.5012,1.5009,1.5006,1.4982,1.4975,1.497,0,0,0,0,0,1.5357,1.5317,1.5322,1.5313,1.5263,1.5223,1.5216,1.5212,1.5228,1.5207,1.5194,1.5201,1.5116,1.5138,1.5128,1.5099,1.5014,1.501,1.5006,1.4984,1.4977,1.497,0,0,0,0,0,0,1.5337,1.5314,1.5319,1.527,1.5249,1.5225,1.5199,1.5204,1.5176,1.5179,1.5173,1.5166,1.5117,1.5103,1.5129,1.5043,1.5067,1.5061,1.5054,1.5046,1.504,1.5043,1.5147,0,0,0,0,0,1.5328,1.5299,1.5279,1.5238,1.5227,1.5215,1.5197,1.5196,1.5172,1.5163,1.5146,1.5121,1.5088,1.5067,1.5036,1.4981,1.4972,1.4955,1.4949,1.4944,1.4938,1.4905,1.4896,1.4991,1.4991,1.4991,0,0,1.5307,1.529,1.5272,1.5233,1.5217,1.5184,1.5207,1.5173,1.5148,1.5157,1.5111,1.5097,1.5069,1.5017,1.4993,1.5004,1.491,1.4939,1.4936,1.4932,1.49,1.4891,1.4883,1.4988,1.4989,1.4989,0,0,1.5251,1.5238,1.52,1.5183,1.5158,1.515,1.5141,1.5116,1.5108,1.5062,1.5067,1.5037,1.4982,1.4961,1.4943,1.4879,1.4883,1.4869,1.4837,1.4804,1.4797,1.479,1.4764,1.4755,1.4863,1.4863,1.4863,0,1.5228,1.5182,1.518,1.5145,1.5126,1.5135,1.5095,1.5078,1.5043,1.5029,1.5043,1.4972,1.4954,1.4895,1.488,1.4866,1.4853,1.4871,1.4798,1.4792,1.4785,1.476,1.4751,1.4862,1.4862,1.4862,1.4862,0,1.5152,1.512,1.5093,1.506,1.5038,1.5001,1.4992,1.497,1.497,1.496,1.4912,1.4891,1.4854,1.4841,1.484,1.4781,1.4788,1.48,1.4823,1.4774,1.4751,1.4741,1.4859,1.486,1.486,1.4861,0,0,1.5082,1.5049,1.5038,1.5023,1.4995,1.4969,1.4931,1.4897,1.4877,1.4853,1.4818,1.4771,1.4782,1.4761,1.4759,1.473,1.4677,1.4745,1.4744,1.4731,1.4607,1.4596,1.4585,1.4681,1.4679,1.4678,1.4608,0,1.5022,1.4957,1.4954,1.4894,1.4862,1.4869,1.4836,1.4814,1.4803,1.4773,1.4761,1.4727,1.4745,1.4732,1.4705,1.4689,1.4652,1.4695,1.4646,1.4644,1.465,1.4573,1.4562,1.4498,1.4599,1.4598,1.4597,0,1.4943,1.4917,1.4854,1.4829,1.4815,1.4786,1.4753,1.4726,1.47,1.4694,1.4671,1.4672,1.463,1.4656,1.4597,1.4627,1.4607,1.4596,1.4593,1.4586,1.4616,1.4561,1.4477,1.4466,1.4583,1.4584,1.4585,0,1.4894,1.4844,1.4799,1.4785,1.4756,1.4734,1.4721,1.4697,1.4676,1.4647,1.4633,1.4599,1.458,1.4552,1.4543,1.4564,1.4483,1.4509,1.4474,1.4474,1.4455,1.4455,1.4363,1.4447,1.4447,1.4447,1.4447,0,1.4826,1.4786,1.4776,1.4748,1.4703,1.47,1.4654,1.4642,1.462,1.4588,1.4592,1.4562,1.4553,1.4519,1.4512,1.4462,1.4454,1.4446,1.4444,1.4444,1.4444,1.4429,1.4432,1.4444,1.4445,1.4446,1.4446,0,1.4763,1.4755,1.4706,1.4683,1.4676,1.4643,1.4621,1.4593,1.4584,1.4543,1.4533,1.4517,1.4478,1.4466,1.442,1.4414,1.4355,1.4358,1.4364,1.4363,1.4327,1.4329,1.4219,1.4203,1.43,1.4299,1.4298,0,1.4719,1.4688,1.4662,1.4641,1.4627,1.4594,1.4573,1.4568,1.4545,1.4513,1.4487,1.445,1.4419,1.4356,1.4338,1.4301,1.4302,1.4266,1.4296,1.4297,1.4298,1.4298,1.4294,1.4259,1.4258,1.4257,1.4257,0,1.4639,1.4637,1.4607,1.4575,1.455,1.4525,1.45,1.4482,1.4473,1.4447,1.4408,1.4384,1.4337,1.4297,1.426,1.4244,1.4247,1.4248,1.4237,1.4235,1.4238,1.4233,1.4345,1.425,1.425,1.4251,1.4251,1.4251,1.4582,1.4555,1.4531,1.4497,1.4478,1.4455,1.4427,1.4414,1.4382,1.4343,1.4342,1.4299,1.4271,1.4222,1.4204,1.4168,1.4178,1.4164,1.4159,1.4155,1.415,1.4247,1.4161,1.4162,1.4162,1.4162,1.4162,0,1.4501,1.4486,1.4455,1.4421,1.4393,1.4402,1.4375,1.435,1.4313,1.4288,1.4258,1.4211,1.4173,1.4153,1.4115,1.409,1.409,1.4079,1.4079,1.4075,1.4145,1.4157,1.4079,1.4079,1.4079,1.4079,1.4079,1.4079,1.4455,1.4408,1.4402,1.4345,1.433,1.4289,1.4272,1.4249,1.423,1.4178,1.4147,1.4135,1.4111,1.4071,1.4035,1.403,1.4014,1.4001,1.3997,1.4062,1.407,1.4078,1.4089,1.3999,1.3999,1.3929,1.3928,1.3928]}]]